Regional Weather Roundup
Issued by NWS Burlington, VT

Home | Current Version | Previous Version | Text Only | Print | Product List | Glossary On
Versions: 1 2 3 4 5 6 7 8 9 10 11 12 13 14 15 16 17 18 19 20 21 22 23 24 25 26 27 28 29 30 31 32 33 34 35 36 37 38 39 40 41 42 43 44 45 46 47 48 49 50
000
ASUS41 KBTV 241610
RWRBTV
VERMONT REGIONAL WEATHER ROUNDUP
NATIONAL WEATHER SERVICE BURLINGTON VT
1200 PM EDT SUN MAY 24 2015

NOTE: "FAIR" INDICATES FEW OR NO CLOUDS BELOW 12,000 FEET WITH NO
SIGNIFICANT WEATHER AND/OR OBSTRUCTIONS TO VISIBILITY.

* THESE REPORTS ARE NOT UNDER NWS QUALITY CONTROL AND/OR DO NOT
  REPORT WEATHER SUCH AS PRECIPITATION AND FOG.

VTZ001>019-241700-
_____VERMONT_____


CITY           SKY/WX    TMP DP  RH WIND       PRES   REMARKS
BURLINGTON     CLOUDY    67  40  37 S8        30.15F
MONTPELIER     PTSUNNY   68  36  30 W10G20    30.21F
MORRISVILLE    PTSUNNY   68  38  33 VRB7      30.17S
ST. JOHNSBURY*   N/A     71  39  31 MISG      30.13S
LYNDONVILLE*     N/A     67  36  32 W13G21    30.18R
MIDDLEBURY*      N/A     71  39  30 S6        30.18F
RUTLAND*       MOSUNNY   70  36  28 W15       30.21F
SPRINGFIELD    SUNNY     75  34  22 SW12G18   30.19F
HIGHGATE*      PTSUNNY   67  40  36 S8        30.14F
NEWPORT*       PTSUNNY   62  40  43 SW16      30.16S
BENNINGTON     SUNNY     72  39  30 SW10G20   30.25F
SUTTON*          N/A     64 N/A N/A MISG        N/A

_____LAKE CHAMPLAIN_____


CITY           SKY/WX    TMP DP  RH WIND       PRES   REMARKS

$$

NYZ007-026>031-035-052-083-241700-
_____NORTHERN NEW YORK_____


CITY           SKY/WX    TMP DP  RH WIND       PRES   REMARKS
PLATTSBURGH    CLOUDY    68  44  42 SE9       30.13F
SARANAC LAKE   CLOUDY    66  34  30 W14G23    30.19F
MASSENA        MOSUNNY   71  41  33 SW17G29   30.15F
OGDENSBURG*    SUNNY     70  41  35 SW8G16    30.17F
POTSDAM*       SUNNY     -8 -26  41 SW17G25   30.18S WCI -31
WATERTOWN      MOSUNNY   67  37  33 SW17G26   30.22F
FT DRUM        MOSUNNY   71  37  29 W10G20    30.21F
ALBANY         MOSUNNY   76  42  29 S8        30.25F
GLENS FALLS    SUNNY     76  38  25 W9        30.20F

$$
NHZ002-005-011-241700-
_____NEW HAMPSHIRE_____


CITY           SKY/WX    TMP DP  RH WIND       PRES   REMARKS
LEBANON        MOSUNNY   74  36  25 W12       30.17F
KEENE          SUNNY    N/A N/A N/A W16G22    30.22F
MT WASHINGTON  CLOUDY    39  34  81 W45G55      N/A
PLYMOUTH         N/A     75  44  33 W10G18    30.15S
WHITEFIELD     PTSUNNY   69  40  34 W10       30.14F

$$

_____REGIONAL QUEBEC LOCATIONS_____


CITY           SKY/WX    TMP DP  RH WIND       PRES   REMARKS
MONTREAL       MOSUNNY   66  45  45 SW20      30.10F
QUEBEC CITY    PTSUNNY   64  48  55 W17       30.02F
SHERBROOKE     PTSUNNY   64  43  45 SW14G22   30.10F

_____REGIONAL ONTARIO LOCATIONS_____


CITY           SKY/WX    TMP DP  RH WIND       PRES   REMARKS
OTTAWA         PTSUNNY   75  45  33 SW14G25   30.11F

______KEY______
VSB  - VISIBILITY IN MILES
WCI  - WIND CHILL INDEX
HX   - HEAT INDEX
$$
NNNN


USA.gov is the U.S. government's official web portal to all federal, state and local government web resources and services.